• Join FlightAware (Why Join?)
  • Login
  • US Flag GB Flag 
16:13 EST


 

Airport Tracker/Info


-or-


 

Live Flight TrackerFlight Track Log ✈ UAL4236 ✈ 16-Apr-2013 ✈ KIAH - KELP

Flight Track Log - Related Links

Times and Time Zones

All times are in EDT time to prevent confusion due to time zone crossing. See the UAL4236 flight status page for this flight to view local times or setup timezone preferences in your user account.

Time Position Orientation Groundspeed Altitude Reporting Facility
EDT Latitude Longitude Course Direction KTS MPH feet Rate Location/Type
10:22 29.9639 -95.3433 276° West 149 171 600  Level Houston Center
10:23 29.9347 -95.3469 186° South 170 196 2,200 1,740 Climbing Houston Center
10:23 29.9158 -95.3814 238° Southwest 213 245 3,100 1,620 Climbing Houston Center
10:24 29.9089 -95.4103 255° West 246 283 3,900 1,920 Climbing Houston Center
10:24 29.9228 -95.4603 288° West 254 292 5,100 2,100 Climbing Houston Center
10:25 29.9325 -95.5061 284° West 270 311 6,300 1,920 Climbing Houston Center
10:25 29.9428 -95.5444 287° West 271 312 7,100 2,100 Climbing Houston Center
10:26 30.0322 -95.7897 277° West  Level FlightAware Approximate
10:26 29.9692 -95.6472 287° West 278 320 9,800  Level Houston Center
10:27 30.0421 -95.9045 276° West  Level FlightAware Approximate
10:27 29.9903 -95.7347 286° West 284 327 11,100  Level Houston Center
10:29 30.0150 -95.8361 286° West 326 375 11,700 720 Climbing Houston Center
10:30 30.0422 -95.9461 286° West 352 405 12,700 1,140 Climbing Houston Center
10:31 30.0722 -96.0706 286° West 355 409 14,100 1,260 Climbing Houston Center
10:32 30.0900 -96.1831 280° West 357 411 15,400 1,200 Climbing Houston Center
10:33 30.1058 -96.2958 279° West 359 413 16,700 1,200 Climbing Houston Center
10:34 30.1236 -96.4064 281° West 354 407 18,000 1,260 Climbing Houston Center
10:35 30.1419 -96.5344 279° West 354 407 19,400 1,140 Climbing Houston Center
10:36 30.1597 -96.6483 280° West 357 411 20,400 960 Climbing Houston Center
10:37 30.1781 -96.7639 280° West 361 415 21,400 960 Climbing Houston Center
10:38 30.1953 -96.8831 280° West 369 425 22,400 960 Climbing Houston Center
10:39 30.2158 -97.0003 281° West 370 426 23,400 960 Climbing Houston Center
10:40 30.2392 -97.1194 283° West 374 430 24,400 960 Climbing Houston Center
10:41 30.2628 -97.2367 283° West 372 428 25,400 960 Climbing Houston Center
10:42 30.2861 -97.3564 283° West 373 429 26,400 1,020 Climbing Houston Center
10:43 30.3119 -97.4933 282° West 370 426 27,600 1,140 Climbing Houston Center
10:44 30.3344 -97.6117 282° West 370 426 28,800 1,260 Climbing Houston Center
10:45 30.3572 -97.7250 283° West 359 413 30,300 1,440 Climbing Houston Center
10:46 30.3775 -97.8378 282° West 354 407 31,800 1,440 Climbing Houston Center
10:47 30.3989 -97.9464 283° West 345 397 33,300 1,380 Climbing Houston Center
10:48 30.4189 -98.0539 282° West 339 390 34,700 1,140 Climbing Houston Center
10:49 30.4383 -98.1594 282° West 333 383 35,700 600 Climbing Houston Center
10:50 30.4567 -98.2650 281° West 331 381 36,000 120 Climbing Houston Center
10:51 30.4831 -98.4008 283° West 361 415 36,000  Level Houston Center
10:52 30.5056 -98.5250 282° West 389 448 36,000  Level Houston Center
10:53 30.5292 -98.6531 282° West 403 464 36,000  Level Houston Center
10:54 30.5547 -98.7825 283° West 408 470 36,000  Level Houston Center
10:55 30.5781 -98.9075 282° West 396 456 36,000  Level Houston Center
10:56 30.5989 -99.0283 281° West 381 438 36,000  Level Houston Center
10:57 30.6247 -99.1647 282° West 381 438 36,000  Level Houston Center
10:59 30.6464 -99.2844 282° West 381 438 36,000  Level Houston Center
11:00 30.6381 -99.4101 282° West  Level FlightAware Approximate
11:00 30.6672 -99.4061 282° West 385 443 36,000  Level Houston Center
11:01 30.6883 -99.5253 282° West 381 438 36,000  Level Houston Center
11:02 30.7100 -99.6467 282° West 384 442 36,000  Level Houston Center
11:03 30.7308 -99.7678 281° West 385 443 36,000  Level Houston Center
11:04 30.7558 -99.9150 281° West 388 447 36,000  Level Houston Center
11:05 30.7772 -100.0369 282° West 387 445 36,000  Level Houston Center
11:06 30.7967 -100.1575 281° West 385 443 36,000  Level Houston Center
11:07 30.8181 -100.2814 281° West 391 450 36,000  Level Houston Center
11:08 30.8381 -100.4022 281° West 387 445 36,000  Level Houston Center
11:09 30.8594 -100.5289 281° West 398 458 36,000  Level Houston Center
11:10 30.8836 -100.6764 281° West 391 450 36,000  Level Houston Center
11:11 30.9047 -100.8006 281° West 394 453 36,000  Level Houston Center
11:12 30.9258 -100.9250 281° West 394 453 36,000 -60 Level Houston Center
11:13 30.9458 -101.0519 280° West 399 459 35,900  Descending Houston Center
11:14 30.9683 -101.1736 282° West 390 449 36,000  Climbing Houston Center
11:15 30.9914 -101.3244 280° West 395 455 36,000  Level Houston Center
11:16 31.0117 -101.4567 280° West 399 459 36,000  Level Albuquerque Center
11:17 31.0331 -101.5836 281° West 400 460 36,000  Level Albuquerque Center
11:18 31.0567 -101.7364 280° West 400 460 36,000  Level Albuquerque Center
11:19 31.0767 -101.8667 280° West 405 466 36,000  Level Albuquerque Center
11:20 31.0947 -101.9869 280° West 418 481 36,000  Level Albuquerque Center
11:21 31.1144 -102.1178 280° West 414 476 36,000  Level Albuquerque Center
11:22 31.1383 -102.2756 280° West 412 474 36,000  Level Albuquerque Center
11:23 31.1594 -102.4064 281° West 411 473 36,000  Level Albuquerque Center
11:24 31.1797 -102.5392 280° West 413 475 36,000  Level Albuquerque Center
11:26 31.1969 -102.6633 279° West 407 468 36,000  Level Albuquerque Center
11:27 31.2206 -102.8192 280° West 406 467 36,000  Level Albuquerque Center
11:28 31.2394 -102.9478 280° West 405 466 36,000  Level Albuquerque Center
11:29 31.2578 -103.0769 279° West 404 465 36,000  Level Albuquerque Center
11:30 31.2772 -103.2061 280° West 402 463 36,000 -60 Level Albuquerque Center
11:31 31.2961 -103.3350 280° West 403 464 35,900  Descending Albuquerque Center
11:32 31.3150 -103.4642 280° West 403 464 36,000  Climbing Albuquerque Center
11:33 31.3356 -103.6206 279° West 404 465 36,000  Level Albuquerque Center
11:34 31.3558 -103.7558 280° West 416 479 36,000  Level Albuquerque Center
11:35 31.3756 -103.8889 280° West 412 474 36,000  Level Albuquerque Center
11:36 31.3928 -104.0161 279° West 400 460 36,000  Level Albuquerque Center
11:37 31.4108 -104.1469 279° West 404 465 36,000  Level Albuquerque Center
11:38 31.4308 -104.2803 280° West 411 473 36,000 -60 Level Albuquerque Center
11:39 31.4497 -104.4089 280° West 410 472 35,900 -1,260 Descending Albuquerque Center
11:40 31.4656 -104.5642 277° West 406 467 33,500 -2,160 Descending Albuquerque Center
11:41 31.4789 -104.6919 277° West 403 464 31,500 -2,040 Descending Albuquerque Center
11:42 31.4925 -104.8250 277° West 406 467 29,300 -2,160 Descending Albuquerque Center
11:43 31.5061 -104.9578 277° West 411 473 27,100 -2,160 Descending Albuquerque Center
11:44 31.5192 -105.0928 277° West 418 481 24,900 -2,520 Descending Albuquerque Center
11:45 31.5367 -105.2581 277° West 428 493 22,000 -2,520 Descending Albuquerque Center
11:46 31.5397 -105.3228 273° West 420 483 21,100 -2,040 Descending Albuquerque Center
11:46 31.5489 -105.3911 279° West 419 482 19,900 -2,280 Descending Albuquerque Center
11:46 31.5503 -105.4350 272° West 418 481 19,300 -1,980 Descending Albuquerque Center
11:47 31.5619 -105.5203 279° West 402 463 17,900 -1,920 Descending Albuquerque Center
11:48 31.5733 -105.6458 276° West 391 450 15,900 -2,280 Descending Albuquerque Center
11:49 31.5792 -105.7022 277° West 372 428 14,900 -2,040 Descending Albuquerque Center
11:49 31.5844 -105.7625 276° West 354 407 13,800 -1,980 Descending Albuquerque Center
11:50 31.5931 -105.8111 282° West 329 379 12,900 -2,280 Descending Albuquerque Center
11:50 31.6261 -105.8747 301° West 325 374 11,500 -1,800 Descending Albuquerque Center
11:51 31.6375 -105.8997 298° West 309 356 11,100 -1,500 Descending Albuquerque Center
11:51 31.6678 -105.9586 301° West 299 344 10,000 -1,440 Descending Albuquerque Center
11:53 31.7119 -106.0481 300° West 258 297 8,400 -1,020 Descending Albuquerque Center
11:53 31.7375 -106.1033 299° West 246 283 8,000 -480 Descending Albuquerque Center
11:54 31.7586 -106.1864 287° West 232 267 7,500 -600 Descending Albuquerque Center
11:55 31.7842 -106.2361 301° West 208 239 6,800 -660 Descending Albuquerque Center